Location: Carrières
(48.9495°N, 2.0407°E)
Time: 10:22:17
(UTC+00:00)

Transit 2A - Pass Details

Date: 19 April 2024
Orbit: 594 x 958 km, 66.7° (Epoch: 24 May)

Event Time Altitude Azimuth Distance (km) Brightness Sun altitude
Rises 12:20:17 0° 324° (NW) 3,116 8.9 52.0°
Reaches altitude 10° 12:23:29 10° 347° (NNW) 2,270 8.2 51.9°
Maximum altitude 12:26:41 16° 25° (NNE) 1,952 7.9 51.8°
Drops below altitude 10° 12:30:03 10° 62° (ENE) 2,420 8.4 51.6°
Sets 12:33:38 0° 84° (E) 3,430 9.2 51.5°
